Time,TemperatureF,DewpointF,PressureIn,WindDirection,WindDirectionDegrees,WindSpeedMPH,WindSpeedGustMPH,Humidity,HourlyPrecipIn,Conditions,Clouds,dailyrainin,SoftwareType,DateUTC
2013-03-23 00:00:00,31.0,19.5,29.70,WSW,238,2.0,4.0,62,0.00,,---,0.06,VWS V14.01,2013-03-23 04:00:00,
2013-03-23 00:05:00,30.9,19.0,29.70,South,171,1.0,9.0,61,0.00,,---,0.00,VWS V14.01,2013-03-23 04:05:00,
2013-03-23 00:10:00,30.9,19.0,29.70,SW,223,0.0,9.0,61,0.00,,---,0.00,VWS V14.01,2013-03-23 04:10:00,
2013-03-23 00:15:00,30.7,18.9,29.70,WSW,247,4.0,4.0,61,0.00,,---,0.00,VWS V14.01,2013-03-23 04:15:00,
2013-03-23 00:20:00,30.6,18.4,29.70,SW,224,0.0,5.0,60,0.00,,---,0.00,VWS V14.01,2013-03-23 04:20:00,
2013-03-23 00:25:00,30.6,18.8,29.70,West,271,0.0,10.0,61,0.00,,---,0.00,VWS V14.01,2013-03-23 04:25:00,
2013-03-23 00:30:00,30.4,19.0,29.70,SW,229,0.0,10.0,62,0.00,,---,0.00,VWS V14.01,2013-03-23 04:30:00,
2013-03-23 00:35:00,30.3,18.9,29.70,East,84,0.0,0.0,62,0.00,,---,0.00,VWS V14.01,2013-03-23 04:35:00,
2013-03-23 00:40:00,30.1,19.0,29.70,SSW,209,0.0,5.0,63,0.00,,---,0.00,VWS V14.01,2013-03-23 04:40:00,
2013-03-23 00:45:00,30.0,18.6,29.70,SSW,213,0.0,1.0,62,0.00,,---,0.00,VWS V14.01,2013-03-23 04:45:00,
2013-03-23 00:50:00,29.8,18.8,29.70,South,170,1.0,5.0,63,0.00,,---,0.00,VWS V14.01,2013-03-23 04:50:00,
2013-03-23 00:55:00,29.7,18.7,29.70,South,170,0.0,0.0,63,0.00,,---,0.00,VWS V14.01,2013-03-23 04:55:00,
2013-03-23 01:00:00,29.5,18.5,29.70,WSW,238,0.0,2.0,63,0.00,,---,0.00,VWS V14.01,2013-03-23 05:00:00,
2013-03-23 01:05:00,29.5,18.5,29.70,SW,235,1.0,2.0,63,0.00,,---,0.00,VWS V14.01,2013-03-23 05:05:00,
2013-03-23 01:10:00,29.4,18.7,29.70,WSW,243,0.0,3.0,64,0.00,,---,0.00,VWS V14.01,2013-03-23 05:10:00,
2013-03-23 01:15:00,29.5,18.5,29.70,SW,224,1.0,3.0,63,0.00,,---,0.00,VWS V14.01,2013-03-23 05:15:00,
2013-03-23 01:20:00,29.5,18.5,29.70,SW,229,0.0,4.0,63,0.00,,---,0.00,VWS V14.01,2013-03-23 05:20:00,
2013-03-23 01:25:00,29.5,18.5,29.70,SW,234,1.0,4.0,63,0.00,,---,0.00,VWS V14.01,2013-03-23 05:25:00,
2013-03-23 01:30:00,29.5,18.5,29.70,SW,230,1.0,5.0,63,0.00,,---,0.00,VWS V14.01,2013-03-23 05:30:00,
2013-03-23 01:35:00,29.5,18.5,29.70,SSW,200,3.0,5.0,63,0.00,,---,0.00,VWS V14.01,2013-03-23 05:35:00,
2013-03-23 01:40:00,29.5,18.5,29.70,WSW,252,2.0,8.0,63,0.00,,---,0.00,VWS V14.01,2013-03-23 05:40:00,
2013-03-23 01:45:00,29.7,18.3,29.70,SW,234,2.0,5.0,62,0.00,,---,0.00,VWS V14.01,2013-03-23 05:45:00,
2013-03-23 01:50:00,29.5,18.5,29.70,WSW,244,5.0,6.0,63,0.00,,---,0.00,VWS V14.01,2013-03-23 05:50:00,
2013-03-23 01:55:00,29.5,18.1,29.70,SW,228,2.0,3.0,62,0.00,,---,0.00,VWS V14.01,2013-03-23 05:55:00,
2013-03-23 02:00:00,29.5,18.5,29.70,WSW,244,3.0,3.0,63,0.00,,---,0.00,VWS V14.01,2013-03-23 06:00:00,
2013-03-23 02:05:00,29.4,18.4,29.69,South,184,1.0,3.0,63,0.00,,---,0.00,VWS V14.01,2013-03-23 06:05:00,
2013-03-23 02:10:00,29.3,18.6,29.70,SW,230,3.0,4.0,64,0.00,,---,0.00,VWS V14.01,2013-03-23 06:10:00,
2013-03-23 02:15:00,29.1,17.7,29.70,WSW,244,1.0,4.0,62,0.00,,---,0.00,VWS V14.01,2013-03-23 06:15:00,
2013-03-23 02:20:00,29.3,17.9,29.70,SW,223,0.0,7.0,62,0.00,,---,0.00,VWS V14.01,2013-03-23 06:20:00,
2013-03-23 02:25:00,29.3,17.9,29.70,SW,234,0.0,3.0,62,0.00,,---,0.00,VWS V14.01,2013-03-23 06:25:00,
2013-03-23 02:30:00,29.0,18.4,29.70,SW,225,3.0,5.0,64,0.00,,---,0.00,VWS V14.01,2013-03-23 06:30:00,
2013-03-23 02:35:00,29.0,18.0,29.69,SSW,197,0.0,4.0,63,0.00,,---,0.00,VWS V14.01,2013-03-23 06:35:00,
2013-03-23 02:40:00,29.0,18.0,29.69,SW,229,3.0,6.0,63,0.00,,---,0.00,VWS V14.01,2013-03-23 06:40:00,
2013-03-23 02:45:00,29.1,18.5,29.69,SW,223,0.0,2.0,64,0.00,,---,0.00,VWS V14.01,2013-03-23 06:45:00,
2013-03-23 02:50:00,29.0,18.4,29.69,WSW,239,2.0,8.0,64,0.00,,---,0.00,VWS V14.01,2013-03-23 06:50:00,
2013-03-23 02:55:00,29.0,18.4,29.69,SW,230,0.0,3.0,64,0.00,,---,0.00,VWS V14.01,2013-03-23 06:55:00,
2013-03-23 03:00:00,28.8,18.2,29.69,SW,219,2.0,7.0,64,0.00,,---,0.00,VWS V14.01,2013-03-23 07:00:00,
2013-03-23 03:05:00,28.8,18.2,29.69,SW,219,0.0,3.0,64,0.00,,---,0.00,VWS V14.01,2013-03-23 07:05:00,
2013-03-23 03:10:00,28.7,18.1,29.69,WSW,239,3.0,6.0,64,0.00,,---,0.00,VWS V14.01,2013-03-23 07:10:00,
2013-03-23 03:15:00,28.7,18.4,29.69,SW,225,0.0,2.0,65,0.00,,---,0.00,VWS V14.01,2013-03-23 07:15:00,
2013-03-23 03:20:00,28.5,17.9,29.69,SW,228,1.0,5.0,64,0.00,,---,0.00,VWS V14.01,2013-03-23 07:20:00,
2013-03-23 03:25:00,28.5,18.2,29.69,SSW,213,4.0,4.0,65,0.00,,---,0.00,VWS V14.01,2013-03-23 07:25:00,
2013-03-23 03:30:00,28.4,18.1,29.69,SW,214,2.0,4.0,65,0.00,,---,0.00,VWS V14.01,2013-03-23 07:30:00,
2013-03-23 03:35:00,28.4,18.1,29.69,SW,232,0.0,5.0,65,0.00,,---,0.00,VWS V14.01,2013-03-23 07:35:00,
2013-03-23 03:40:00,28.2,18.0,29.69,SSW,213,3.0,5.0,65,0.00,,---,0.00,VWS V14.01,2013-03-23 07:40:00,
2013-03-23 03:45:00,28.1,18.2,29.68,WSW,249,2.0,2.0,66,0.00,,---,0.00,VWS V14.01,2013-03-23 07:45:00,
2013-03-23 03:50:00,27.9,18.0,29.68,SW,228,0.0,4.0,66,0.00,,---,0.00,VWS V14.01,2013-03-23 07:50:00,
2013-03-23 03:55:00,27.8,18.3,29.68,SW,223,0.0,2.0,67,0.00,,---,0.00,VWS V14.01,2013-03-23 07:55:00,
2013-03-23 04:00:00,27.6,18.1,29.68,SW,234,0.0,4.0,67,0.00,,---,0.00,VWS V14.01,2013-03-23 08:00:00,
2013-03-23 04:05:00,27.6,18.1,29.68,SW,234,0.0,0.0,67,0.00,,---,0.00,VWS V14.01,2013-03-23 08:05:00,
2013-03-23 04:10:00,27.6,18.1,29.68,WSW,237,0.0,5.0,67,0.00,,---,0.00,VWS V14.01,2013-03-23 08:10:00,
2013-03-23 04:15:00,27.8,18.3,29.68,SW,217,3.0,3.0,67,0.00,,---,0.00,VWS V14.01,2013-03-23 08:15:00,
2013-03-23 04:20:00,27.8,17.9,29.68,SSW,211,0.0,7.0,66,0.00,,---,0.00,VWS V14.01,2013-03-23 08:20:00,
2013-03-23 04:25:00,27.8,17.9,29.68,SSW,206,0.0,1.0,66,0.00,,---,0.00,VWS V14.01,2013-03-23 08:25:00,
2013-03-23 04:30:00,27.5,18.0,29.68,SW,232,0.0,3.0,67,0.00,,---,0.00,VWS V14.01,2013-03-23 08:30:00,
2013-03-23 04:35:00,27.3,18.1,29.68,WSW,239,0.0,2.0,68,0.00,,---,0.00,VWS V14.01,2013-03-23 08:35:00,
2013-03-23 04:40:00,27.2,17.7,29.68,WSW,238,0.0,3.0,67,0.00,,---,0.00,VWS V14.01,2013-03-23 08:40:00,
2013-03-23 04:45:00,27.0,17.9,29.68,SSW,213,0.0,1.0,68,0.00,,---,0.00,VWS V14.01,2013-03-23 08:45:00,
2013-03-23 04:50:00,26.9,17.8,29.68,SW,229,3.0,5.0,68,0.00,,---,0.00,VWS V14.01,2013-03-23 08:50:00,
2013-03-23 04:55:00,26.7,17.9,29.68,SW,229,0.0,1.0,69,0.00,,---,0.00,VWS V14.01,2013-03-23 08:55:00,
2013-03-23 05:00:00,26.6,17.8,29.68,SSW,211,0.0,3.0,69,0.00,,---,0.00,VWS V14.01,2013-03-23 09:00:00,
2013-03-23 05:05:00,26.6,17.8,29.68,South,188,0.0,2.0,69,0.00,,---,0.00,VWS V14.01,2013-03-23 09:05:00,
2013-03-23 05:10:00,26.6,17.8,29.68,SW,219,0.0,5.0,69,0.00,,---,0.00,VWS V14.01,2013-03-23 09:10:00,
2013-03-23 05:15:00,26.4,17.6,29.68,SW,219,0.0,0.0,69,0.00,,---,0.00,VWS V14.01,2013-03-23 09:15:00,
2013-03-23 05:20:00,26.3,17.9,29.68,West,275,0.0,1.0,70,0.00,,---,0.00,VWS V14.01,2013-03-23 09:20:00,
2013-03-23 05:25:00,26.3,17.5,29.68,SW,225,0.0,1.0,69,0.00,,---,0.00,VWS V14.01,2013-03-23 09:25:00,
2013-03-23 05:30:00,26.4,17.6,29.68,SW,221,0.0,3.0,69,0.00,,---,0.00,VWS V14.01,2013-03-23 09:30:00,
2013-03-23 05:35:00,26.6,17.8,29.68,SSW,198,0.0,2.0,69,0.00,,---,0.00,VWS V14.01,2013-03-23 09:35:00,
2013-03-23 05:40:00,26.6,17.8,29.68,SW,234,3.0,4.0,69,0.00,,---,0.00,VWS V14.01,2013-03-23 09:40:00,
2013-03-23 05:45:00,26.4,17.6,29.68,SW,221,1.0,2.0,69,0.00,,---,0.00,VWS V14.01,2013-03-23 09:45:00,
2013-03-23 05:50:00,26.4,17.6,29.68,SW,219,0.0,5.0,69,0.00,,---,0.00,VWS V14.01,2013-03-23 09:50:00,
2013-03-23 05:55:00,26.6,17.8,29.68,SW,232,0.0,2.0,69,0.00,,---,0.00,VWS V14.01,2013-03-23 09:55:00,
2013-03-23 06:00:00,26.6,18.1,29.68,SSW,193,0.0,4.0,70,0.00,,---,0.00,VWS V14.01,2013-03-23 10:00:00,
2013-03-23 06:05:00,26.6,18.1,29.68,SSW,213,5.0,5.0,70,0.00,,---,0.00,VWS V14.01,2013-03-23 10:05:00,
2013-03-23 06:10:00,26.7,18.2,29.67,SSW,197,0.0,5.0,70,0.00,,---,0.00,VWS V14.01,2013-03-23 10:10:00,
2013-03-23 06:15:00,26.7,18.2,29.67,WSW,241,0.0,2.0,70,0.00,,---,0.00,VWS V14.01,2013-03-23 10:15:00,
2013-03-23 06:20:00,26.9,18.4,29.67,SSW,208,1.0,6.0,70,0.00,,---,0.00,VWS V14.01,2013-03-23 10:20:00,
2013-03-23 06:25:00,27.0,18.5,29.67,South,184,1.0,2.0,70,0.00,,---,0.00,VWS V14.01,2013-03-23 10:25:00,
2013-03-23 06:30:00,27.0,18.5,29.67,WSW,245,0.0,5.0,70,0.00,,---,0.00,VWS V14.01,2013-03-23 10:30:00,
2013-03-23 06:35:00,27.0,18.5,29.67,South,173,0.0,1.0,70,0.00,,---,0.00,VWS V14.01,2013-03-23 10:35:00,
2013-03-23 06:40:00,26.9,18.8,29.67,SW,218,0.0,10.0,71,0.00,,---,0.00,VWS V14.01,2013-03-23 10:40:00,
2013-03-23 06:45:00,26.7,18.6,29.67,SSW,213,0.0,4.0,71,0.00,,---,0.00,VWS V14.01,2013-03-23 10:45:00,
2013-03-23 06:50:00,26.9,18.8,29.66,SW,217,3.0,5.0,71,0.00,,---,0.00,VWS V14.01,2013-03-23 10:50:00,
2013-03-23 06:55:00,27.0,19.2,29.67,WSW,254,0.0,5.0,72,0.00,,---,0.00,VWS V14.01,2013-03-23 10:55:00,
2013-03-23 07:00:00,27.2,19.1,29.67,SSW,208,0.0,5.0,71,0.00,,---,0.00,VWS V14.01,2013-03-23 11:00:00,
2013-03-23 07:05:00,27.2,19.1,29.67,West,259,1.0,3.0,71,0.00,,---,0.00,VWS V14.01,2013-03-23 11:05:00,
2013-03-23 07:10:00,27.3,19.1,29.66,West,265,0.0,4.0,71,0.00,,---,0.00,VWS V14.01,2013-03-23 11:10:00,
2013-03-23 07:15:00,27.3,19.1,29.66,SW,228,3.0,7.0,71,0.00,,---,0.00,VWS V14.01,2013-03-23 11:15:00,
2013-03-23 07:20:00,27.8,19.3,29.66,WSW,257,0.0,7.0,70,0.00,,---,0.00,VWS V14.01,2013-03-23 11:20:00,
2013-03-23 07:25:00,28.1,19.6,29.67,SW,215,0.0,1.0,70,0.00,,---,0.00,VWS V14.01,2013-03-23 11:25:00,
2013-03-23 07:30:00,28.2,19.7,29.66,SW,221,3.0,7.0,70,0.00,,---,0.00,VWS V14.01,2013-03-23 11:30:00,
2013-03-23 07:35:00,28.4,19.9,29.66,WNW,284,1.0,5.0,70,0.00,,---,0.00,VWS V14.01,2013-03-23 11:35:00,
2013-03-23 07:40:00,28.5,19.6,29.66,SSW,202,3.0,5.0,69,0.00,,---,0.00,VWS V14.01,2013-03-23 11:40:00,
2013-03-23 07:45:00,28.8,19.9,29.66,SW,234,3.0,4.0,69,0.00,,---,0.00,VWS V14.01,2013-03-23 11:45:00,
2013-03-23 07:50:00,29.3,20.4,29.66,SSW,196,9.0,13.0,69,0.00,,---,0.00,VWS V14.01,2013-03-23 11:50:00,
2013-03-23 07:55:00,29.7,20.1,29.66,WSW,256,2.0,3.0,67,0.00,,---,0.00,VWS V14.01,2013-03-23 11:55:00,
2013-03-23 08:00:00,30.1,20.5,29.67,WSW,250,5.0,7.0,67,0.00,,---,0.00,VWS V14.01,2013-03-23 12:00:00,
2013-03-23 08:05:00,30.4,20.4,29.66,SSW,207,6.0,13.0,66,0.00,,---,0.00,VWS V14.01,2013-03-23 12:05:00,
2013-03-23 08:10:00,30.7,20.3,29.66,SW,224,3.0,13.0,65,0.00,,---,0.00,VWS V14.01,2013-03-23 12:10:00,
2013-03-23 08:15:00,31.0,20.6,29.66,West,259,4.0,5.0,65,0.00,,---,0.00,VWS V14.01,2013-03-23 12:15:00,
2013-03-23 08:20:00,31.2,20.5,29.66,SW,222,5.0,9.0,64,0.00,,---,0.00,VWS V14.01,2013-03-23 12:20:00,
2013-03-23 08:25:00,31.6,20.5,29.67,SW,220,5.0,9.0,63,0.00,,---,0.00,VWS V14.01,2013-03-23 12:25:00,
2013-03-23 08:30:00,31.9,20.4,29.67,SE,135,4.0,15.0,62,0.00,,---,0.00,VWS V14.01,2013-03-23 12:30:00,
2013-03-23 08:35:00,32.2,20.7,29.67,SW,218,3.0,6.0,62,0.00,,---,0.00,VWS V14.01,2013-03-23 12:35:00,
2013-03-23 08:40:00,32.5,20.9,29.66,SSW,197,6.0,15.0,62,0.00,,---,0.00,VWS V14.01,2013-03-23 12:40:00,
2013-03-23 08:45:00,32.8,20.9,29.66,WSW,244,4.0,4.0,61,0.00,,---,0.00,VWS V14.01,2013-03-23 12:45:00,
2013-03-23 08:50:00,33.1,21.1,29.67,WSW,246,0.0,12.0,61,0.00,,---,0.00,VWS V14.01,2013-03-23 12:50:00,
2013-03-23 08:55:00,33.2,20.4,29.67,SW,229,6.0,10.0,59,0.00,,---,0.00,VWS V14.01,2013-03-23 12:55:00,
2013-03-23 09:00:00,33.7,20.9,29.66,WSW,247,3.0,10.0,59,0.00,,---,0.00,VWS V14.01,2013-03-23 13:00:00,
2013-03-23 09:05:00,34.1,20.9,29.66,South,191,3.0,10.0,58,0.00,,---,0.00,VWS V14.01,2013-03-23 13:05:00,
2013-03-23 09:10:00,34.4,21.2,29.66,SW,235,2.0,11.0,58,0.00,,---,0.00,VWS V14.01,2013-03-23 13:10:00,
2013-03-23 09:15:00,34.9,21.2,29.66,SSE,164,0.0,6.0,57,0.00,,---,0.00,VWS V14.01,2013-03-23 13:15:00,
2013-03-23 09:20:00,34.7,20.2,29.66,SW,222,9.0,13.0,55,0.00,,---,0.00,VWS V14.01,2013-03-23 13:20:00,
2013-03-23 09:25:00,35.0,20.9,29.66,SW,232,4.0,5.0,56,0.00,,---,0.00,VWS V14.01,2013-03-23 13:25:00,
2013-03-23 09:30:00,35.0,20.5,29.65,WSW,253,1.0,13.0,55,0.00,,---,0.00,VWS V14.01,2013-03-23 13:30:00,
2013-03-23 09:35:00,35.5,20.5,29.65,SSW,209,10.0,11.0,54,0.00,,---,0.00,VWS V14.01,2013-03-23 13:35:00,
2013-03-23 09:40:00,35.8,20.8,29.65,WSW,247,4.0,11.0,54,0.00,,---,0.00,VWS V14.01,2013-03-23 13:40:00,
2013-03-23 09:45:00,35.8,20.4,29.65,WSW,240,3.0,4.0,53,0.00,,---,0.00,VWS V14.01,2013-03-23 13:45:00,
2013-03-23 09:50:00,36.2,20.7,29.65,South,190,1.0,7.0,53,0.00,,---,0.00,VWS V14.01,2013-03-23 13:50:00,
2013-03-23 09:55:00,36.6,20.6,29.65,SSE,161,1.0,5.0,52,0.00,,---,0.00,VWS V14.01,2013-03-23 13:55:00,
2013-03-23 10:00:00,36.6,19.7,29.65,SSW,202,10.0,14.0,50,0.00,,---,0.00,VWS V14.01,2013-03-23 14:00:00,
2013-03-23 10:05:00,36.3,19.9,29.65,WSW,249,5.0,5.0,51,0.00,,---,0.00,VWS V14.01,2013-03-23 14:05:00,
2013-03-23 10:10:00,36.5,20.1,29.65,SW,219,6.0,16.0,51,0.00,,---,0.00,VWS V14.01,2013-03-23 14:10:00,
2013-03-23 10:15:00,36.8,19.0,29.64,SW,226,4.0,11.0,48,0.00,,---,0.00,VWS V14.01,2013-03-23 14:15:00,
2013-03-23 10:20:00,37.0,18.7,29.65,West,259,3.0,13.0,47,0.00,,---,0.00,VWS V14.01,2013-03-23 14:20:00,
2013-03-23 10:25:00,37.0,19.6,29.64,West,263,1.0,6.0,49,0.00,,---,0.00,VWS V14.01,2013-03-23 14:25:00,
2013-03-23 10:30:00,37.0,19.1,29.64,SW,224,3.0,10.0,48,0.00,,---,0.00,VWS V14.01,2013-03-23 14:30:00,
2013-03-23 10:35:00,37.3,18.9,29.64,SW,228,5.0,11.0,47,0.00,,---,0.00,VWS V14.01,2013-03-23 14:35:00,
2013-03-23 10:40:00,37.3,18.4,29.64,WSW,238,5.0,14.0,46,0.00,,---,0.00,VWS V14.01,2013-03-23 14:40:00,
2013-03-23 10:45:00,37.2,19.3,29.64,WSW,258,0.0,4.0,48,0.00,,---,0.00,VWS V14.01,2013-03-23 14:45:00,
2013-03-23 10:50:00,37.5,18.6,29.64,WSW,240,15.0,15.0,46,0.00,,---,0.00,VWS V14.01,2013-03-23 14:50:00,
2013-03-23 10:55:00,37.5,18.6,29.63,SSW,211,11.0,12.0,46,0.00,,---,0.00,VWS V14.01,2013-03-23 14:55:00,
2013-03-23 11:00:00,37.6,17.7,29.63,WSW,250,4.0,18.0,44,0.00,,---,0.00,VWS V14.01,2013-03-23 15:00:00,
2013-03-23 11:05:00,37.9,19.0,29.63,South,184,4.0,9.0,46,0.00,,---,0.00,VWS V14.01,2013-03-23 15:05:00,
2013-03-23 11:10:00,37.8,17.9,29.63,SW,225,5.0,13.0,44,0.00,,---,0.00,VWS V14.01,2013-03-23 15:10:00,
2013-03-23 11:15:00,37.9,18.5,29.63,West,275,4.0,5.0,45,0.00,,---,0.00,VWS V14.01,2013-03-23 15:15:00,
2013-03-23 11:20:00,37.9,17.4,29.63,WSW,238,7.0,16.0,43,0.00,,---,0.00,VWS V14.01,2013-03-23 15:20:00,
2013-03-23 11:25:00,37.8,18.9,29.63,West,259,0.0,4.0,46,0.00,,---,0.00,VWS V14.01,2013-03-23 15:25:00,
2013-03-23 11:30:00,37.8,18.4,29.63,WSW,249,5.0,10.0,45,0.00,,---,0.00,VWS V14.01,2013-03-23 15:30:00,
2013-03-23 11:35:00,37.9,17.4,29.62,WSW,249,0.0,4.0,43,0.00,,---,0.00,VWS V14.01,2013-03-23 15:35:00,
2013-03-23 11:40:00,38.2,19.3,29.62,WSW,242,4.0,10.0,46,0.00,,---,0.00,VWS V14.01,2013-03-23 15:40:00,
2013-03-23 11:45:00,38.5,18.5,29.62,SW,229,0.0,4.0,44,0.00,,---,0.00,VWS V14.01,2013-03-23 15:45:00,
2013-03-23 11:50:00,39.1,18.5,29.62,SW,219,9.0,14.0,43,0.00,,---,0.00,VWS V14.01,2013-03-23 15:50:00,
2013-03-23 11:55:00,38.9,17.2,29.61,SW,223,9.0,9.0,41,0.00,,---,0.00,VWS V14.01,2013-03-23 15:55:00,
2013-03-23 12:00:00,38.9,17.2,29.61,SW,230,4.0,9.0,41,0.00,,---,0.00,VWS V14.01,2013-03-23 16:00:00,
2013-03-23 12:05:00,39.2,17.5,29.62,West,259,5.0,6.0,41,0.00,,---,0.00,VWS V14.01,2013-03-23 16:05:00,
2013-03-23 12:10:00,39.1,18.5,29.62,WSW,238,3.0,12.0,43,0.00,,---,0.00,VWS V14.01,2013-03-23 16:10:00,
2013-03-23 12:15:00,38.9,16.6,29.61,SW,230,1.0,9.0,40,0.00,,---,0.00,VWS V14.01,2013-03-23 16:15:00,
2013-03-23 12:20:00,39.6,17.9,29.62,WSW,251,7.0,12.0,41,0.00,,---,0.00,VWS V14.01,2013-03-23 16:20:00,
2013-03-23 12:25:00,40.1,18.3,29.61,SW,227,4.0,5.0,41,0.00,,---,0.00,VWS V14.01,2013-03-23 16:25:00,
2013-03-23 12:30:00,40.2,16.6,29.61,WSW,257,2.0,12.0,38,0.00,,---,0.00,VWS V14.01,2013-03-23 16:30:00,
2013-03-23 12:35:00,40.5,15.7,29.61,SW,224,10.0,18.0,36,0.00,,---,0.00,VWS V14.01,2013-03-23 16:35:00,
2013-03-23 12:40:00,39.9,16.4,29.62,WSW,249,2.0,18.0,38,0.00,,---,0.00,VWS V14.01,2013-03-23 16:40:00,
2013-03-23 12:45:00,39.6,16.1,29.61,WSW,244,6.0,11.0,38,0.00,,---,0.00,VWS V14.01,2013-03-23 16:45:00,
2013-03-23 12:50:00,39.9,15.8,29.61,WNW,300,6.0,13.0,37,0.00,,---,0.00,VWS V14.01,2013-03-23 16:50:00,
2013-03-23 12:55:00,39.9,15.8,29.61,WNW,282,1.0,10.0,37,0.00,,---,0.00,VWS V14.01,2013-03-23 16:55:00,
2013-03-23 13:00:00,39.8,15.7,29.61,WSW,244,6.0,14.0,37,0.00,,---,0.00,VWS V14.01,2013-03-23 17:00:00,
2013-03-23 13:05:00,39.9,17.0,29.61,SSW,201,5.0,11.0,39,0.00,,---,0.00,VWS V14.01,2013-03-23 17:05:00,
2013-03-23 13:10:00,40.5,17.5,29.62,SSW,205,10.0,14.0,39,0.00,,---,0.00,VWS V14.01,2013-03-23 17:10:00,
2013-03-23 13:15:00,40.1,17.1,29.61,SSW,193,11.0,15.0,39,0.00,,---,0.00,VWS V14.01,2013-03-23 17:15:00,
2013-03-23 13:20:00,39.9,15.8,29.61,West,276,5.0,15.0,37,0.00,,---,0.00,VWS V14.01,2013-03-23 17:20:00,
2013-03-23 13:25:00,39.8,15.7,29.61,SW,218,4.0,10.0,37,0.00,,---,0.00,VWS V14.01,2013-03-23 17:25:00,
2013-03-23 13:30:00,39.9,17.5,29.61,SSW,200,4.0,15.0,40,0.00,,---,0.00,VWS V14.01,2013-03-23 17:30:00,
2013-03-23 13:35:00,40.3,14.8,29.61,SW,221,4.0,16.0,35,0.00,,---,0.00,VWS V14.01,2013-03-23 17:35:00,
2013-03-23 13:40:00,39.9,15.1,29.61,SW,223,4.0,16.0,36,0.00,,---,0.00,VWS V14.01,2013-03-23 17:40:00,
2013-03-23 13:45:00,39.9,16.4,29.61,SW,216,5.0,7.0,38,0.00,,---,0.00,VWS V14.01,2013-03-23 17:45:00,
2013-03-23 13:50:00,40.2,17.2,29.61,WSW,257,0.0,14.0,39,0.00,,---,0.00,VWS V14.01,2013-03-23 17:50:00,
2013-03-23 13:55:00,40.3,17.9,29.61,West,265,1.0,6.0,40,0.00,,---,0.00,VWS V14.01,2013-03-23 17:55:00,
2013-03-23 14:00:00,40.2,15.4,29.61,WSW,249,3.0,11.0,36,0.00,,---,0.00,VWS V14.01,2013-03-23 18:00:00,
2013-03-23 14:05:00,40.1,16.5,29.61,WSW,252,2.0,7.0,38,0.00,,---,0.00,VWS V14.01,2013-03-23 18:05:00,
2013-03-23 14:10:00,40.3,16.7,29.61,WSW,239,2.0,7.0,38,0.00,,---,0.00,VWS V14.01,2013-03-23 18:10:00,
2013-03-23 14:15:00,40.9,15.4,29.61,SW,231,4.0,10.0,35,0.00,,---,0.00,VWS V14.01,2013-03-23 18:15:00,
2013-03-23 14:20:00,41.2,17.5,29.61,SSW,205,10.0,11.0,38,0.00,,---,0.00,VWS V14.01,2013-03-23 18:20:00,
2013-03-23 14:25:00,41.2,17.5,29.61,SW,227,3.0,13.0,38,0.00,,---,0.00,VWS V14.01,2013-03-23 18:25:00,
2013-03-23 14:30:00,41.2,16.9,29.61,South,189,6.0,13.0,37,0.00,,---,0.00,VWS V14.01,2013-03-23 18:30:00,
2013-03-23 14:35:00,41.2,16.9,29.61,SSW,209,3.0,9.0,37,0.00,,---,0.00,VWS V14.01,2013-03-23 18:35:00,
2013-03-23 14:40:00,41.2,16.3,29.61,SSW,193,11.0,11.0,36,0.00,,---,0.00,VWS V14.01,2013-03-23 18:40:00,
2013-03-23 14:45:00,40.9,16.6,29.61,SSW,199,5.0,5.0,37,0.00,,---,0.00,VWS V14.01,2013-03-23 18:45:00,
2013-03-23 14:50:00,40.8,17.2,29.61,SSW,213,1.0,14.0,38,0.00,,---,0.00,VWS V14.01,2013-03-23 18:50:00,
2013-03-23 14:55:00,40.9,17.9,29.61,SW,220,6.0,7.0,39,0.00,,---,0.00,VWS V14.01,2013-03-23 18:55:00,
2013-03-23 15:00:00,41.5,17.2,29.60,WSW,251,6.0,13.0,37,0.00,,---,0.00,VWS V14.01,2013-03-23 19:00:00,
2013-03-23 15:05:00,41.6,16.0,29.60,SW,232,5.0,10.0,35,0.00,,---,0.00,VWS V14.01,2013-03-23 19:05:00,
2013-03-23 15:10:00,41.8,16.2,29.60,WSW,258,3.0,11.0,35,0.00,,---,0.00,VWS V14.01,2013-03-23 19:10:00,
2013-03-23 15:15:00,42.1,16.4,29.60,ESE,108,1.0,7.0,35,0.00,,---,0.00,VWS V14.01,2013-03-23 19:15:00,
2013-03-23 15:20:00,42.2,15.2,29.60,SSE,161,12.0,13.0,33,0.00,,---,0.00,VWS V14.01,2013-03-23 19:20:00,
2013-03-23 15:25:00,42.3,17.3,29.59,SW,216,2.0,10.0,36,0.00,,---,0.00,VWS V14.01,2013-03-23 19:25:00,
2013-03-23 15:30:00,42.8,17.1,29.59,SE,142,3.0,12.0,35,0.00,,---,0.00,VWS V14.01,2013-03-23 19:30:00,
2013-03-23 15:35:00,42.8,17.1,29.60,SW,221,9.0,11.0,35,0.00,,---,0.00,VWS V14.01,2013-03-23 19:35:00,
2013-03-23 15:40:00,42.8,17.1,29.59,WSW,257,2.0,14.0,35,0.00,,---,0.00,VWS V14.01,2013-03-23 19:40:00,
2013-03-23 15:45:00,42.8,17.1,29.60,South,188,5.0,11.0,35,0.00,,---,0.00,VWS V14.01,2013-03-23 19:45:00,
2013-03-23 15:50:00,42.9,18.4,29.59,SSW,212,2.0,12.0,37,0.00,,---,0.00,VWS V14.01,2013-03-23 19:50:00,
2013-03-23 15:55:00,42.9,17.1,29.59,WSW,246,4.0,5.0,35,0.00,,---,0.00,VWS V14.01,2013-03-23 19:55:00,
2013-03-23 16:00:00,43.1,17.3,29.60,WSW,238,1.0,9.0,35,0.00,,---,0.00,VWS V14.01,2013-03-23 20:00:00,
2013-03-23 16:05:00,43.3,17.5,29.60,SW,223,2.0,6.0,35,0.00,,---,0.00,VWS V14.01,2013-03-23 20:05:00,
2013-03-23 16:10:00,42.9,17.1,29.60,WSW,258,6.0,10.0,35,0.00,,---,0.00,VWS V14.01,2013-03-23 20:10:00,
2013-03-23 16:15:00,42.6,16.9,29.60,SW,225,3.0,10.0,35,0.00,,---,0.00,VWS V14.01,2013-03-23 20:15:00,
2013-03-23 16:20:00,42.9,15.8,29.60,SW,229,4.0,11.0,33,0.00,,---,0.00,VWS V14.01,2013-03-23 20:20:00,
2013-03-23 16:25:00,42.9,16.5,29.59,WSW,250,7.0,19.0,34,0.00,,---,0.00,VWS V14.01,2013-03-23 20:25:00,
2013-03-23 16:30:00,42.8,16.4,29.60,West,265,4.0,19.0,34,0.00,,---,0.00,VWS V14.01,2013-03-23 20:30:00,
2013-03-23 16:35:00,42.8,18.4,29.60,SW,229,6.0,7.0,37,0.00,,---,0.00,VWS V14.01,2013-03-23 20:35:00,
2013-03-23 16:40:00,42.3,16.6,29.60,WSW,238,3.0,10.0,35,0.00,,---,0.00,VWS V14.01,2013-03-23 20:40:00,
2013-03-23 16:45:00,42.1,18.3,29.60,WSW,256,1.0,5.0,38,0.00,,---,0.00,VWS V14.01,2013-03-23 20:45:00,
2013-03-23 16:50:00,42.1,14.4,29.61,WSW,257,3.0,10.0,32,0.00,,---,0.00,VWS V14.01,2013-03-23 20:50:00,
2013-03-23 16:55:00,42.1,17.1,29.60,SSW,201,12.0,12.0,36,0.00,,---,0.00,VWS V14.01,2013-03-23 20:55:00,
2013-03-23 17:00:00,41.5,15.9,29.60,WSW,244,3.0,15.0,35,0.00,,---,0.00,VWS V14.01,2013-03-23 21:00:00,
2013-03-23 17:05:00,41.1,14.9,29.61,WSW,254,7.0,15.0,34,0.00,,---,0.00,VWS V14.01,2013-03-23 21:05:00,
2013-03-23 17:10:00,41.2,15.6,29.61,West,265,4.0,15.0,35,0.00,,---,0.00,VWS V14.01,2013-03-23 21:10:00,
2013-03-23 17:15:00,41.3,17.6,29.61,SW,227,0.0,2.0,38,0.00,,---,0.00,VWS V14.01,2013-03-23 21:15:00,
2013-03-23 17:20:00,41.5,18.4,29.62,SW,234,5.0,12.0,39,0.00,,---,0.00,VWS V14.01,2013-03-23 21:20:00,
2013-03-23 17:25:00,41.3,17.0,29.63,West,259,3.0,3.0,37,0.00,,---,0.00,VWS V14.01,2013-03-23 21:25:00,
2013-03-23 17:30:00,41.1,16.2,29.63,WSW,256,4.0,9.0,36,0.00,,---,0.00,VWS V14.01,2013-03-23 21:30:00,
2013-03-23 17:35:00,40.8,15.9,29.63,WNW,297,0.0,3.0,36,0.00,,---,0.00,VWS V14.01,2013-03-23 21:35:00,
2013-03-23 17:40:00,40.9,16.6,29.64,West,265,0.0,6.0,37,0.00,,---,0.00,VWS V14.01,2013-03-23 21:40:00,
2013-03-23 17:45:00,40.9,17.9,29.64,SSW,205,3.0,6.0,39,0.00,,---,0.00,VWS V14.01,2013-03-23 21:45:00,
2013-03-23 17:50:00,40.9,17.3,29.64,SW,235,0.0,6.0,38,0.00,,---,0.00,VWS V14.01,2013-03-23 21:50:00,
2013-03-23 17:55:00,40.6,15.1,29.64,WSW,252,4.0,11.0,35,0.00,,---,0.00,VWS V14.01,2013-03-23 21:55:00,
2013-03-23 18:00:00,40.5,15.0,29.65,WSW,248,0.0,11.0,35,0.00,,---,0.00,VWS V14.01,2013-03-23 22:00:00,
2013-03-23 18:05:00,40.5,17.5,29.64,WSW,249,2.0,2.0,39,0.00,,---,0.00,VWS V14.01,2013-03-23 22:05:00,
2013-03-23 18:10:00,40.1,17.7,29.65,WSW,248,1.0,10.0,40,0.00,,---,0.00,VWS V14.01,2013-03-23 22:10:00,
2013-03-23 18:15:00,39.8,16.9,29.65,WSW,241,1.0,5.0,39,0.00,,---,0.00,VWS V14.01,2013-03-23 22:15:00,
2013-03-23 18:20:00,39.6,17.9,29.66,SW,219,3.0,15.0,41,0.00,,---,0.00,VWS V14.01,2013-03-23 22:20:00,
2013-03-23 18:25:00,39.5,18.3,29.66,SW,224,4.0,4.0,42,0.00,,---,0.00,VWS V14.01,2013-03-23 22:25:00,
2013-03-23 18:30:00,39.5,17.8,29.66,WSW,237,7.0,12.0,41,0.00,,---,0.00,VWS V14.01,2013-03-23 22:30:00,
2013-03-23 18:35:00,39.2,16.9,29.67,SW,229,0.0,3.0,40,0.00,,---,0.00,VWS V14.01,2013-03-23 22:35:00,
2013-03-23 18:40:00,39.1,15.6,29.67,West,275,1.0,6.0,38,0.00,,---,0.00,VWS V14.01,2013-03-23 22:40:00,
2013-03-23 18:45:00,38.9,19.4,29.67,SSW,212,1.0,2.0,45,0.00,,---,0.00,VWS V14.01,2013-03-23 22:45:00,
2013-03-23 18:50:00,38.6,18.6,29.67,West,259,3.0,6.0,44,0.00,,---,0.00,VWS V14.01,2013-03-23 22:50:00,
2013-03-23 18:55:00,38.5,18.5,29.67,West,275,0.0,4.0,44,0.00,,---,0.00,VWS V14.01,2013-03-23 22:55:00,
2013-03-23 19:00:00,38.2,17.1,29.67,West,273,1.0,5.0,42,0.00,,---,0.00,VWS V14.01,2013-03-23 23:00:00,
2013-03-23 19:05:00,38.2,17.1,29.68,WNW,286,0.0,4.0,42,0.00,,---,0.00,VWS V14.01,2013-03-23 23:05:00,
2013-03-23 19:10:00,37.9,18.5,29.68,WSW,246,4.0,6.0,45,0.00,,---,0.00,VWS V14.01,2013-03-23 23:10:00,
2013-03-23 19:15:00,37.8,17.9,29.68,WSW,252,2.0,5.0,44,0.00,,---,0.00,VWS V14.01,2013-03-23 23:15:00,
2013-03-23 19:20:00,37.9,16.3,29.69,WSW,251,3.0,11.0,41,0.00,,---,0.00,VWS V14.01,2013-03-23 23:20:00,
2013-03-23 19:25:00,37.9,17.4,29.69,SW,229,2.0,10.0,43,0.00,,---,0.00,VWS V14.01,2013-03-23 23:25:00,
2013-03-23 19:30:00,37.9,17.4,29.69,West,276,5.0,13.0,43,0.00,,---,0.00,VWS V14.01,2013-03-23 23:30:00,
2013-03-23 19:35:00,38.0,17.5,29.69,WSW,251,3.0,4.0,43,0.00,,---,0.00,VWS V14.01,2013-03-23 23:35:00,
2013-03-23 19:40:00,37.9,17.4,29.70,SSW,206,8.0,11.0,43,0.00,,---,0.00,VWS V14.01,2013-03-23 23:40:00,
2013-03-23 19:45:00,37.8,17.9,29.70,WSW,255,1.0,2.0,44,0.00,,---,0.00,VWS V14.01,2013-03-23 23:45:00,
2013-03-23 19:50:00,37.6,18.2,29.70,WSW,250,1.0,5.0,45,0.00,,---,0.00,VWS V14.01,2013-03-23 23:50:00,
2013-03-23 19:55:00,37.6,18.2,29.71,West,261,2.0,3.0,45,0.00,,---,0.00,VWS V14.01,2013-03-23 23:55:00,
2013-03-23 20:00:00,37.5,18.6,29.70,WSW,246,3.0,5.0,46,0.00,,---,0.00,VWS V14.01,2013-03-24 00:00:00,
2013-03-23 20:05:00,37.6,18.7,29.71,WSW,242,3.0,5.0,46,0.00,,---,0.00,VWS V14.01,2013-03-24 00:05:00,
2013-03-23 20:10:00,37.8,18.9,29.71,WSW,249,5.0,9.0,46,0.00,,---,0.00,VWS V14.01,2013-03-24 00:10:00,
2013-03-23 20:15:00,37.9,18.0,29.72,SW,229,2.0,11.0,44,0.00,,---,0.00,VWS V14.01,2013-03-24 00:15:00,
2013-03-23 20:20:00,37.9,17.4,29.72,SW,234,5.0,11.0,43,0.00,,---,0.00,VWS V14.01,2013-03-24 00:20:00,
2013-03-23 20:25:00,38.0,18.0,29.72,SW,229,2.0,8.0,44,0.00,,---,0.00,VWS V14.01,2013-03-24 00:25:00,
2013-03-23 20:30:00,37.9,19.0,29.72,West,275,1.0,8.0,46,0.00,,---,0.00,VWS V14.01,2013-03-24 00:30:00,
2013-03-23 20:35:00,37.9,18.5,29.73,SSW,203,3.0,5.0,45,0.00,,---,0.00,VWS V14.01,2013-03-24 00:35:00,
2013-03-23 20:40:00,37.9,18.0,29.73,West,259,1.0,10.0,44,0.00,,---,0.00,VWS V14.01,2013-03-24 00:40:00,
2013-03-23 20:45:00,37.8,18.9,29.73,West,263,3.0,4.0,46,0.00,,---,0.00,VWS V14.01,2013-03-24 00:45:00,
2013-03-23 20:50:00,37.8,17.9,29.73,WSW,238,2.0,9.0,44,0.00,,---,0.00,VWS V14.01,2013-03-24 00:50:00,
2013-03-23 20:55:00,37.8,18.4,29.73,West,267,1.0,4.0,45,0.00,,---,0.00,VWS V14.01,2013-03-24 00:55:00,
2013-03-23 21:00:00,37.8,18.4,29.73,WSW,248,5.0,15.0,45,0.00,,---,0.00,VWS V14.01,2013-03-24 01:00:00,
2013-03-23 21:05:00,37.6,18.7,29.73,West,265,1.0,5.0,46,0.00,,---,0.00,VWS V14.01,2013-03-24 01:05:00,
2013-03-23 21:10:00,37.3,17.9,29.73,East,94,0.0,6.0,45,0.00,,---,0.00,VWS V14.01,2013-03-24 01:10:00,
2013-03-23 21:15:00,37.0,18.7,29.73,SW,214,3.0,7.0,47,0.00,,---,0.00,VWS V14.01,2013-03-24 01:15:00,
2013-03-23 21:20:00,37.2,17.8,29.73,SW,217,4.0,13.0,45,0.00,,---,0.00,VWS V14.01,2013-03-24 01:20:00,
2013-03-23 21:25:00,37.0,18.2,29.73,WSW,245,2.0,5.0,46,0.00,,---,0.00,VWS V14.01,2013-03-24 01:25:00,
2013-03-23 21:30:00,37.0,18.7,29.73,SSW,206,3.0,10.0,47,0.00,,---,0.00,VWS V14.01,2013-03-24 01:30:00,
2013-03-23 21:35:00,36.9,18.1,29.73,SSW,209,2.0,6.0,46,0.00,,---,0.00,VWS V14.01,2013-03-24 01:35:00,
2013-03-23 21:40:00,36.8,19.0,29.73,SW,221,4.0,9.0,48,0.00,,---,0.00,VWS V14.01,2013-03-24 01:40:00,
2013-03-23 21:45:00,36.6,18.8,29.73,West,272,2.0,9.0,48,0.00,,---,0.00,VWS V14.01,2013-03-24 01:45:00,
2013-03-23 21:50:00,36.5,19.2,29.73,WSW,240,0.0,9.0,49,0.00,,---,0.00,VWS V14.01,2013-03-24 01:50:00,
2013-03-23 21:55:00,36.5,19.2,29.74,SSW,207,4.0,6.0,49,0.00,,---,0.00,VWS V14.01,2013-03-24 01:55:00,
2013-03-23 22:00:00,36.5,18.7,29.74,WSW,244,0.0,9.0,48,0.00,,---,0.00,VWS V14.01,2013-03-24 02:00:00,
2013-03-23 22:05:00,36.3,19.0,29.73,SW,235,2.0,2.0,49,0.00,,---,0.00,VWS V14.01,2013-03-24 02:05:00,
2013-03-23 22:10:00,36.2,18.9,29.73,WSW,246,3.0,4.0,49,0.00,,---,0.00,VWS V14.01,2013-03-24 02:10:00,
2013-03-23 22:15:00,36.2,18.9,29.73,SW,229,5.0,5.0,49,0.00,,---,0.00,VWS V14.01,2013-03-24 02:15:00,
2013-03-23 22:20:00,36.0,18.7,29.72,SW,234,2.0,5.0,49,0.00,,---,0.00,VWS V14.01,2013-03-24 02:20:00,
2013-03-23 22:25:00,35.9,19.5,29.72,SW,234,2.0,4.0,51,0.00,,---,0.00,VWS V14.01,2013-03-24 02:25:00,
2013-03-23 22:30:00,35.8,19.5,29.73,WSW,247,3.0,5.0,51,0.00,,---,0.00,VWS V14.01,2013-03-24 02:30:00,
2013-03-23 22:35:00,35.8,18.5,29.73,WSW,250,2.0,11.0,49,0.00,,---,0.00,VWS V14.01,2013-03-24 02:35:00,
2013-03-23 22:40:00,35.9,19.1,29.73,WSW,246,1.0,11.0,50,0.00,,---,0.00,VWS V14.01,2013-03-24 02:40:00,
2013-03-23 22:45:00,35.8,19.5,29.73,WSW,238,4.0,6.0,51,0.00,,---,0.00,VWS V14.01,2013-03-24 02:45:00,
2013-03-23 22:50:00,35.8,19.0,29.73,SW,227,1.0,10.0,50,0.00,,---,0.00,VWS V14.01,2013-03-24 02:50:00,
2013-03-23 22:55:00,35.8,19.5,29.73,SW,229,3.0,3.0,51,0.00,,---,0.00,VWS V14.01,2013-03-24 02:55:00,
2013-03-23 23:00:00,35.6,19.3,29.73,SW,225,5.0,10.0,51,0.00,,---,0.00,VWS V14.01,2013-03-24 03:00:00,
2013-03-23 23:05:00,35.5,19.2,29.73,WSW,246,2.0,5.0,51,0.00,,---,0.00,VWS V14.01,2013-03-24 03:05:00,
2013-03-23 23:10:00,35.5,19.2,29.73,NE,50,3.0,11.0,51,0.00,,---,0.00,VWS V14.01,2013-03-24 03:10:00,
2013-03-23 23:15:00,35.5,19.2,29.73,South,190,1.0,3.0,51,0.00,,---,0.00,VWS V14.01,2013-03-24 03:15:00,
2013-03-23 23:20:00,35.3,19.5,29.73,SW,234,5.0,9.0,52,0.00,,---,0.00,VWS V14.01,2013-03-24 03:20:00,
2013-03-23 23:25:00,35.3,19.5,29.73,WSW,252,2.0,5.0,52,0.00,,---,0.00,VWS V14.01,2013-03-24 03:25:00,
2013-03-23 23:30:00,35.2,19.4,29.73,West,269,2.0,9.0,52,0.00,,---,0.00,VWS V14.01,2013-03-24 03:30:00,
2013-03-23 23:35:00,35.0,19.2,29.73,SW,217,3.0,3.0,52,0.00,,---,0.00,VWS V14.01,2013-03-24 03:35:00,
2013-03-23 23:40:00,35.0,19.2,29.72,SW,214,5.0,11.0,52,0.00,,---,0.00,VWS V14.01,2013-03-24 03:40:00,
2013-03-23 23:45:00,35.0,19.2,29.72,WSW,239,5.0,10.0,52,0.00,,---,0.00,VWS V14.01,2013-03-24 03:45:00,
2013-03-23 23:50:00,35.0,19.2,29.72,SSW,202,6.0,10.0,52,0.00,,---,0.00,VWS V14.01,2013-03-24 03:50:00,
2013-03-23 23:55:00,35.0,19.2,29.72,SSW,202,2.0,5.0,52,0.00,,---,0.00,VWS V14.01,2013-03-24 03:55:00,